| time (UTC) | temp C | wind direction | speed KPH | gust KPH | rain 1hr cm | rain 24hr cm | rain mn cm | humidity % | barometer mb |
| 20260506092014 | 15 | 238 | 32.2 | 43.5 | 0.00 | 0.00 | 0.00 | 66 | |
| 20260506091510 | 13 | 252 | 25.7 | 35.4 | 0.00 | 0.00 | 0.00 | 67 | |
| 20260506091010 | 13 | 256 | 32.2 | 40.2 | 0.00 | 0.00 | 0.00 | 67 | |
| 20260506090511 | 13 | 253 | 20.9 | 32.2 | 0.00 | 0.00 | 0.00 | 68 | |
| 20260506090010 | 13 | 252 | 29.0 | 35.4 | 0.00 | 0.00 | 0.00 | 68 | |
| 20260506085511 | 13 | 228 | 32.2 | 40.2 | 0.00 | 0.00 | 0.00 | 69 | |
| 20260506085010 | 13 | 258 | 35.4 | 40.2 | 0.00 | 0.00 | 0.00 | 68 | |
| 20260506084510 | 13 | 249 | 40.2 | 43.5 | 0.00 | 0.00 | 0.00 | 70 | |
| 20260506084010 | 13 | 261 | 40.2 | 46.7 | 0.00 | 0.00 | 0.00 | 72 | |
| 20260506083509 | 13 | 242 | 40.2 | 43.5 | 0.00 | 0.00 | 0.00 | 73 | |
| 20260506083011 | 13 | 231 | 29.0 | 35.4 | 0.00 | 0.00 | 0.00 | 74 | |
| 20260506082511 | 12 | 242 | 35.4 | 40.2 | 0.00 | 0.00 | 0.00 | 74 | |
| 20260506082012 | 13 | 216 | 25.7 | 32.2 | 0.00 | 0.00 | 0.00 | 74 | |
| 20260506081510 | 13 | 217 | 25.7 | 32.2 | 0.00 | 0.00 | 0.00 | 75 | |
| 20260506081012 | 13 | 248 | 29.0 | 35.4 | 0.00 | 0.00 | 0.00 | 76 | |
| 20260506080517 | 12 | 252 | 32.2 | 40.2 | 0.00 | 0.00 | 0.00 | 76 | |
| 20260506073510 | 12 | 228 | 29.0 | 35.4 | 0.00 | 0.00 | 0.00 | 81 | |
| 20260506073010 | 12 | 238 | 29.0 | 35.4 | 0.00 | 0.00 | 0.00 | 82 | |
| 20260506072511 | 12 | 235 | 29.0 | 35.4 | 0.00 | 0.00 | 0.00 | 83 | |
| 20260506072013 | 12 | 242 | 25.7 | 32.2 | 0.00 | 0.00 | 0.00 | 84 | |
| 20260506071510 | 12 | 233 | 32.2 | 35.4 | 0.00 | 0.00 | 0.00 | 85 | |
| 20260506071010 | 12 | 241 | 25.7 | 32.2 | 0.00 | 0.00 | 0.00 | 85 | |
| 20260506070511 | 12 | 242 | 29.0 | 32.2 | 0.00 | 0.00 | 0.00 | 85 | |
| 20260506062511 | 11 | 247 | 25.7 | 29.0 | 0.00 | 0.00 | 0.00 | 87 | |
| 20260506062014 | 11 | 243 | 20.9 | 25.7 | 0.00 | 0.00 | 0.00 | 87 | |
| 20260506061511 | 11 | 233 | 25.7 | 32.2 | 0.00 | 0.00 | 0.00 | 87 | |
| 20260506061010 | 11 | 235 | 29.0 | 32.2 | 0.00 | 0.00 | 0.00 | 87 | |
| 20260506060510 | 11 | 220 | 29.0 | 32.2 | 0.00 | 0.00 | 0.00 | 87 | |
| 20260506051011 | 10 | 217 | 29.0 | 32.2 | 0.00 | 0.00 | 0.00 | 88 | |
| 20260506050511 | 10 | 212 | 32.2 | 35.4 | 0.00 | 0.00 | 0.00 | 88 | |
| 20260506045011 | 10 | 190 | 32.2 | 40.2 | 0.00 | 0.00 | 0.00 | 89 | |
| 20260506044510 | 10 | 194 | 29.0 | 35.4 | 0.00 | 0.00 | 0.00 | 89 | |
| 20260506044010 | 10 | 192 | 32.2 | 43.5 | 0.00 | 0.00 | 0.00 | 90 | |
| 20260506043510 | 10 | 201 | 32.2 | 40.2 | 0.00 | 0.00 | 0.00 | 89 | |
| 20260506043009 | 10 | 211 | 32.2 | 35.4 | 0.00 | 0.00 | 0.00 | 90 | |
| 20260506042510 | 10 | 207 | 32.2 | 40.2 | 0.00 | 0.00 | 0.00 | 90 | |
| 20260506042016 | 10 | 208 | 32.2 | 35.4 | 0.00 | 0.00 | 0.00 | 90 | |
| 20260506041511 | 10 | 215 | 29.0 | 29.0 | 0.00 | 0.00 | 0.00 | 90 | |
| 20260506041011 | 10 | 211 | 29.0 | 32.2 | 0.00 | 0.00 | 0.00 | 90 | |
| 20260506040510 | 10 | 216 | 25.7 | 32.2 | 0.00 | 0.00 | 0.00 | 91 | |
| 20260506040010 | 10 | 214 | 32.2 | 32.2 | 0.00 | 0.00 | 0.00 | 91 | |
| 20260506035511 | 10 | 217 | 29.0 | 32.2 | 0.00 | 0.00 | 0.00 | 91 | |
| 20260506035010 | 8 | 213 | 29.0 | 32.2 | 0.00 | 0.00 | 0.00 | 91 | |
| 20260506034511 | 8 | 220 | 29.0 | 32.2 | 0.00 | 0.00 | 0.00 | 91 | |
| 20260506034011 | 8 | 226 | 29.0 | 32.2 | 0.00 | 0.00 | 0.00 | 91 | |
| 20260506033511 | 8 | 224 | 29.0 | 32.2 | 0.00 | 0.00 | 0.00 | 91 | |
| 20260506033010 | 10 | 217 | 35.4 | 35.4 | 0.00 | 0.00 | 0.00 | 91 | |
| 20260506032510 | 10 | 212 | 35.4 | 40.2 | 0.00 | 0.00 | 0.00 | 92 | |
| 20260506032015 | 10 | 211 | 32.2 | 35.4 | 0.00 | 0.00 | 0.00 | 92 | |
| 20260506031511 | 10 | 209 | 32.2 | 35.4 | 0.00 | 0.00 | 0.00 | 92 | |
| 20260506031010 | 10 | 206 | 32.2 | 32.2 | 0.00 | 0.00 | 0.00 | 92 | |
| 20260506030511 | 8 | 212 | 25.7 | 29.0 | 0.00 | 0.00 | 0.00 | 92 | |
| 20260506030011 | 8 | 216 | 20.9 | 25.7 | 0.00 | 0.00 | 0.00 | 92 | |
| 20260506025510 | 8 | 216 | 25.7 | 29.0 | 0.00 | 0.00 | 0.00 | 91 | |
| 20260506025010 | 8 | 227 | 20.9 | 20.9 | 0.00 | 0.00 | 0.00 | 91 | |
| 20260506024512 | 8 | 236 | 20.9 | 25.7 | 0.00 | 0.00 | 0.00 | 91 | |
| 20260506024010 | 8 | 241 | 20.9 | 25.7 | 0.00 | 0.00 | 0.00 | 91 | |
| 20260506023511 | 8 | 240 | 25.7 | 32.2 | 0.00 | 0.00 | 0.00 | 91 | |
| 20260506023011 | 10 | 248 | 20.9 | 25.7 | 0.00 | 0.00 | 0.00 | 91 | |
| 20260506022510 | 10 | 259 | 25.7 | 32.2 | 0.00 | 0.00 | 0.00 | 91 | |
| 20260506022013 | 8 | 245 | 20.9 | 20.9 | 0.00 | 0.00 | 0.00 | 91 | |
| 20260506021511 | 8 | 242 | 14.5 | 17.7 | 0.00 | 0.00 | 0.00 | 92 | |
| 20260506021011 | 10 | 236 | 17.7 | 17.7 | 0.00 | 0.00 | 0.00 | 92 | |
| 20260506020510 | 10 | 255 | 17.7 | 17.7 | 0.00 | 0.00 | 0.00 | 92 | |
| 20260506020010 | 8 | 245 | 17.7 | 20.9 | 0.00 | 0.00 | 0.00 | 92 | |
| 20260506015509 | 8 | 232 | 20.9 | 20.9 | 0.00 | 0.00 | 0.00 | 91 | |
| 20260506015018 | 8 | 234 | 20.9 | 25.7 | 0.00 | 0.00 | 0.00 | 91 | |
| 20260506014511 | 8 | 247 | 25.7 | 25.7 | 0.00 | 0.00 | 0.00 | 91 | |
| 20260506014010 | 8 | 229 | 20.9 | 25.7 | 0.00 | 0.00 | 0.00 | 91 | |
| 20260506013511 | 8 | 219 | 20.9 | 20.9 | 0.00 | 0.00 | 0.00 | 91 | |
| 20260506013011 | 8 | 224 | 20.9 | 20.9 | 0.00 | 0.00 | 0.00 | 91 | |
| 20260506012509 | 8 | 243 | 20.9 | 25.7 | 0.00 | 0.00 | 0.00 | 90 | |
| 20260506012010 | 8 | 239 | 25.7 | 25.7 | 0.00 | 0.00 | 0.00 | 90 | |
| 20260506011510 | 8 | 241 | 25.7 | 29.0 | 0.00 | 0.00 | 0.00 | 90 | |
| 20260506011010 | 8 | 244 | 29.0 | 29.0 | 0.00 | 0.00 | 0.00 | 90 | |
| 20260506010510 | 10 | 251 | 25.7 | 29.0 | 0.00 | 0.00 | 0.00 | 90 | |
| 20260506010010 | 10 | 238 | 20.9 | 25.7 | 0.00 | 0.00 | 0.00 | 90 | |
| 20260506005510 | 10 | 237 | 25.7 | 25.7 | 0.00 | 0.00 | 0.00 | 90 | |
| 20260506005010 | 10 | 238 | 25.7 | 25.7 | 0.00 | 0.00 | 0.00 | 90 | |
| 20260506004511 | 10 | 243 | 25.7 | 25.7 | 0.00 | 0.00 | 0.00 | 89 | |
| 20260506004010 | 10 | 247 | 25.7 | 25.7 | 0.00 | 0.00 | 0.00 | 89 | |
| 20260506003510 | 10 | 243 | 20.9 | 25.7 | 0.00 | 0.00 | 0.00 | 89 | |
| 20260506003011 | 10 | 239 | 25.7 | 25.7 | 0.00 | 0.00 | 0.00 | 89 | |
| 20260506002509 | 10 | 232 | 20.9 | 25.7 | 0.00 | 0.00 | 0.00 | 88 | |
| 20260506002011 | 10 | 229 | 25.7 | 29.0 | 0.00 | 0.00 | 0.00 | 88 | |
| 20260506001510 | 10 | 235 | 20.9 | 20.9 | 0.00 | 0.00 | 0.00 | 88 | |
| 20260506001010 | 10 | 245 | 17.7 | 17.7 | 0.00 | 0.00 | 0.00 | 87 | |
| 20260506000511 | 10 | 238 | 17.7 | 17.7 | 0.00 | 0.00 | 0.00 | 87 | |
| 20260505235510 | 10 | 233 | 17.7 | 17.7 | 0.00 | 0.00 | 0.00 | 86 | |
| 20260505235010 | 10 | 239 | 17.7 | 17.7 | 0.00 | 0.00 | 0.00 | 85 | |
| 20260505234510 | 10 | 242 | 14.5 | 14.5 | 0.00 | 0.00 | 0.00 | 84 | |
| 20260505234011 | 10 | 255 | 11.3 | 14.5 | 0.00 | 0.00 | 0.00 | 84 | |
| 20260505233510 | 11 | 273 | 11.3 | 11.3 | 0.00 | 0.00 | 0.00 | 83 | |
| 20260505233011 | 11 | 279 | 14.5 | 14.5 | 0.00 | 0.00 | 0.00 | 84 | |
| 20260505231010 | 11 | 279 | 11.3 | 11.3 | 0.00 | 0.00 | 0.00 | 84 | |
| 20260505230511 | 11 | 288 | 6.4 | 11.3 | 0.00 | 0.00 | 0.00 | 85 | |
| 20260505230010 | 11 | 291 | 6.4 | 11.3 | 0.00 | 0.00 | 0.00 | 85 | |
| 20260505225509 | 11 | 297 | 6.4 | 6.4 | 0.00 | 0.00 | 0.00 | 85 | |
| 20260505225010 | 11 | 294 | 11.3 | 11.3 | 0.00 | 0.00 | 0.00 | 86 | |
| 20260505224510 | 10 | 165 | 0.0 | 0.0 | 0.00 | 0.00 | 0.00 | 85 | |
| 20260505224018 | 11 | 311 | 3.2 | 3.2 | 0.00 | 0.00 | 0.00 | 85 | |
| 20260505223510 | 11 | 311 | 3.2 | 3.2 | 0.00 | 0.00 | 0.00 | 86 | |
| 20260505223011 | 11 | 311 | 6.4 | 11.3 | 0.00 | 0.00 | 0.00 | 87 | |
| 20260505222510 | 11 | 312 | 11.3 | 14.5 | 0.00 | 0.00 | 0.00 | 87 | |
| 20260505222013 | 11 | 307 | 14.5 | 14.5 | 0.00 | 0.00 | 0.00 | 88 | |
| 20260505221511 | 11 | 329 | 17.7 | 20.9 | 0.00 | 0.00 | 0.00 | 89 | |
| 20260505221010 | 10 | 324 | 17.7 | 20.9 | 0.00 | 0.00 | 0.00 | 89 | |
| 20260505220510 | 10 | 309 | 14.5 | 17.7 | 0.00 | 0.00 | 0.00 | 89 | |
| 20260505220010 | 10 | 325 | 20.9 | 25.7 | 0.00 | 0.00 | 0.00 | 89 | |
| 20260505215510 | 10 | 322 | 20.9 | 25.7 | 0.00 | 0.00 | 0.00 | 89 | |
| 20260505215015 | 10 | 314 | 20.9 | 20.9 | 0.00 | 0.00 | 0.00 | 89 | |
| 20260505214510 | 10 | 295 | 17.7 | 17.7 | 0.00 | 0.00 | 0.00 | 88 | |
| 20260505214010 | 10 | 296 | 17.7 | 20.9 | 0.00 | 0.00 | 0.00 | 88 | |
| 20260505213510 | 10 | 290 | 25.7 | 29.0 | 0.00 | 0.00 | 0.00 | 88 | |
| 20260505213010 | 10 | 286 | 29.0 | 29.0 | 0.00 | 0.00 | 0.00 | 88 | |
| 20260505212511 | 10 | 286 | 25.7 | 32.2 | 0.00 | 0.00 | 0.00 | 88 | |
| 20260505212011 | 10 | 285 | 25.7 | 29.0 | 0.00 | 0.00 | 0.00 | 88 | |
| 20260505211511 | 10 | 288 | 29.0 | 32.2 | 0.00 | 0.00 | 0.00 | 88 | |
| 20260505211010 | 10 | 280 | 40.2 | 43.5 | 0.00 | 0.00 | 0.00 | 88 | |
| 20260505210510 | 10 | 280 | 35.4 | 40.2 | 0.00 | 0.00 | 0.00 | 88 | |
| 20260505210010 | 10 | 275 | 35.4 | 40.2 | 0.00 | 0.00 | 0.00 | 87 | |
| 20260505205510 | 10 | 284 | 35.4 | 40.2 | 0.00 | 0.00 | 0.00 | 87 | |
| 20260505205009 | 10 | 279 | 29.0 | 32.2 | 0.00 | 0.00 | 0.00 | 85 | |
| 20260505204511 | 10 | 299 | 20.9 | 25.7 | 0.00 | 0.00 | 0.00 | 86 | |
| 20260505204010 | 10 | 268 | 32.2 | 40.2 | 0.00 | 0.00 | 0.00 | 85 | |
| 20260505203517 | 10 | 276 | 29.0 | 40.2 | 0.00 | 0.00 | 0.00 | 85 | |
| 20260505203011 | 10 | 280 | 46.7 | 54.7 | 0.00 | 0.00 | 0.00 | 84 | |
| 20260505202511 | 10 | 274 | 54.7 | 61.2 | 0.00 | 0.00 | 0.00 | 83 | |
| 20260505202019 | 10 | 273 | 64.4 | 72.4 | 0.00 | 0.00 | 0.00 | 81 | |
| 20260505201510 | 11 | 278 | 64.4 | 75.6 | 0.00 | 0.00 | 0.00 | 79 | |
| 20260505201010 | 13 | 277 | 35.4 | 40.2 | 0.00 | 0.00 | 0.00 | 73 | |
| 20260505200511 | 15 | 325 | 6.4 | 11.3 | 0.00 | 0.00 | 0.00 | 70 | |
| 20260505200011 | 15 | 17 | 11.3 | 14.5 | 0.00 | 0.00 | 0.00 | 70 | |
| 20260505195509 | 15 | 42 | 17.7 | 17.7 | 0.00 | 0.00 | 0.00 | 70 | |
| 20260505195010 | 15 | 53 | 17.7 | 20.9 | 0.00 | 0.00 | 0.00 | 70 | |
| 20260505194511 | 15 | 56 | 17.7 | 25.7 | 0.00 | 0.00 | 0.00 | 70 | |
| 20260505194010 | 15 | 58 | 20.9 | 25.7 | 0.00 | 0.00 | 0.00 | 69 | |
| 20260505193511 | 15 | 54 | 25.7 | 25.7 | 0.00 | 0.00 | 0.00 | 69 | |
| 20260505193011 | 15 | 58 | 29.0 | 35.4 | 0.00 | 0.00 | 0.00 | 68 | |
| 20260505192510 | 15 | 59 | 29.0 | 35.4 | 0.00 | 0.00 | 0.00 | 68 | |
| 20260505192013 | 16 | 52 | 32.2 | 35.4 | 0.00 | 0.00 | 0.00 | 67 | |
| 20260505191511 | 16 | 54 | 32.2 | 35.4 | 0.00 | 0.00 | 0.00 | 67 | |
| 20260505191010 | 16 | 47 | 32.2 | 40.2 | 0.00 | 0.00 | 0.00 | 66 | |
| 20260505190510 | 16 | 47 | 32.2 | 35.4 | 0.00 | 0.00 | 0.00 | 66 | |
| 20260505190011 | 16 | 50 | 32.2 | 40.2 | 0.00 | 0.00 | 0.00 | 66 | |
| 20260505185511 | 16 | 56 | 29.0 | 32.2 | 0.00 | 0.00 | 0.00 | 66 | |
| 20260505185011 | 16 | 56 | 25.7 | 29.0 | 0.00 | 0.00 | 0.00 | 65 | |
| 20260505184511 | 16 | 63 | 17.7 | 20.9 | 0.00 | 0.00 | 0.00 | 64 | |
| 20260505184011 | 16 | 66 | 11.3 | 14.5 | 0.00 | 0.00 | 0.00 | 64 | |
| 20260505183510 | 16 | 51 | 14.5 | 20.9 | 0.00 | 0.00 | 0.00 | 64 | |
| 20260505183011 | 16 | 42 | 11.3 | 17.7 | 0.00 | 0.00 | 0.00 | 64 | |
| 20260505182510 | 16 | 45 | 11.3 | 17.7 | 0.00 | 0.00 | 0.00 | 63 | |
| 20260505182013 | 16 | 41 | 11.3 | 14.5 | 0.00 | 0.00 | 0.00 | 63 | |
| 20260505181510 | 16 | 28 | 11.3 | 17.7 | 0.00 | 0.00 | 0.00 | 63 | |
| 20260505181010 | 16 | 13 | 20.9 | 25.7 | 0.00 | 0.00 | 0.00 | 63 | |
| 20260505180510 | 16 | 17 | 14.5 | 17.7 | 0.00 | 0.00 | 0.00 | 62 | |
| 20260505180011 | 16 | 21 | 17.7 | 25.7 | 0.00 | 0.00 | 0.00 | 62 | |
| 20260505175510 | 16 | 12 | 25.7 | 29.0 | 0.00 | 0.00 | 0.00 | 62 | |
| 20260505175010 | 16 | 9 | 25.7 | 29.0 | 0.00 | 0.00 | 0.00 | 62 | |
| 20260505174510 | 16 | 5 | 25.7 | 29.0 | 0.00 | 0.00 | 0.00 | 62 | |
| 20260505174009 | 16 | 358 | 20.9 | 29.0 | 0.00 | 0.00 | 0.00 | 62 | |
| 20260505173511 | 16 | 9 | 25.7 | 32.2 | 0.00 | 0.00 | 0.00 | 61 | |
| 20260505173015 | 17 | 2 | 25.7 | 32.2 | 0.00 | 0.00 | 0.00 | 61 | |
| 20260505172511 | 17 | 3 | 32.2 | 35.4 | 0.00 | 0.00 | 0.00 | 61 | |
| 20260505172012 | 17 | 358 | 25.7 | 35.4 | 0.00 | 0.00 | 0.00 | 61 | |
| 20260505171010 | 17 | 6 | 32.2 | 40.2 | 0.00 | 0.00 | 0.00 | 61 | |
| 20260505170510 | 17 | 8 | 32.2 | 40.2 | 0.00 | 0.00 | 0.00 | 61 | |
| 20260505170010 | 17 | 13 | 32.2 | 43.5 | 0.00 | 0.00 | 0.00 | 61 | |
| 20260505165511 | 17 | 7 | 25.7 | 29.0 | 0.00 | 0.00 | 0.00 | 61 | |
| 20260505165010 | 17 | 8 | 29.0 | 35.4 | 0.00 | 0.00 | 0.00 | 61 | |
| 20260505164511 | 17 | 8 | 32.2 | 40.2 | 0.00 | 0.00 | 0.00 | 61 | |
| 20260505164010 | 17 | 359 | 29.0 | 32.2 | 0.00 | 0.00 | 0.00 | 61 | |
| 20260505163511 | 17 | 3 | 25.7 | 32.2 | 0.00 | 0.00 | 0.00 | 60 | |
| 20260505163012 | 17 | 10 | 25.7 | 29.0 | 0.00 | 0.00 | 0.00 | 60 | |
| 20260505162510 | 17 | 2 | 29.0 | 35.4 | 0.00 | 0.00 | 0.00 | 60 | |
| 20260505162010 | 17 | 5 | 25.7 | 29.0 | 0.00 | 0.00 | 0.00 | 59 | |
| 20260505161511 | 17 | 10 | 25.7 | 29.0 | 0.00 | 0.00 | 0.00 | 59 | |
| 20260505161010 | 17 | 355 | 32.2 | 35.4 | 0.00 | 0.00 | 0.00 | 59 | |
| 20260505160510 | 17 | 358 | 32.2 | 40.2 | 0.00 | 0.00 | 0.00 | 58 | |
| 20260505153010 | 18 | 350 | 32.2 | 40.2 | 0.00 | 0.00 | 0.00 | 53 | |
| 20260505152510 | 18 | 355 | 35.4 | 46.7 | 0.00 | 0.00 | 0.00 | 53 | |
| 20260505152012 | 18 | 344 | 32.2 | 35.4 | 0.00 | 0.00 | 0.00 | 53 | |
| 20260505151510 | 18 | 350 | 29.0 | 35.4 | 0.00 | 0.00 | 0.00 | 53 | |
| 20260505151010 | 18 | 342 | 32.2 | 43.5 | 0.00 | 0.00 | 0.00 | 52 | |
| 20260505150511 | 18 | 344 | 32.2 | 40.2 | 0.00 | 0.00 | 0.00 | 52 | |
| 20260505140510 | 20 | 354 | 20.9 | 32.2 | 0.00 | 0.00 | 0.00 | 47 | |
| 20260505125010 | 22 | 107 | 6.4 | 11.3 | 0.00 | 0.00 | 0.00 | 38 | |
| 20260505124510 | 22 | 82 | 3.2 | 6.4 | 0.00 | 0.00 | 0.00 | 39 | |
| 20260505124010 | 22 | 91 | 6.4 | 11.3 | 0.00 | 0.00 | 0.00 | 39 | |
| 20260505123511 | 22 | 106 | 6.4 | 11.3 | 0.00 | 0.00 | 0.00 | 39 | |
| 20260505123010 | 22 | 56 | 6.4 | 14.5 | 0.00 | 0.00 | 0.00 | 40 | |
| 20260505122509 | 22 | 33 | 11.3 | 14.5 | 0.00 | 0.00 | 0.00 | 41 | |
| 20260505122013 | 22 | 37 | 11.3 | 14.5 | 0.00 | 0.00 | 0.00 | 40 | |
| 20260505121510 | 22 | 55 | 3.2 | 6.4 | 0.00 | 0.00 | 0.00 | 40 | |
| 20260505121010 | 22 | 52 | 6.4 | 11.3 | 0.00 | 0.00 | 0.00 | 40 | |
| 20260505120510 | 22 | 358 | 6.4 | 11.3 | 0.00 | 0.00 | 0.00 | 40 | |
| 20260505120010 | 22 | 144 | 6.4 | 6.4 | 0.00 | 0.00 | 0.00 | 40 | |
| 20260505115509 | 22 | 118 | 6.4 | 11.3 | 0.00 | 0.00 | 0.00 | 40 | |
| 20260505115010 | 22 | 91 | 6.4 | 11.3 | 0.00 | 0.00 | 0.00 | 41 | |
| 20260505114510 | 22 | 80 | 6.4 | 11.3 | 0.00 | 0.00 | 0.00 | 40 | |
| 20260505114014 | 22 | 5 | 3.2 | 11.3 | 0.00 | 0.00 | 0.00 | 43 | |
| 20260505113511 | 22 | 58 | 6.4 | 11.3 | 0.00 | 0.00 | 0.00 | 43 | |
| 20260505113011 | 21 | 38 | 6.4 | 11.3 | 0.00 | 0.00 | 0.00 | 43 | |
| 20260505112511 | 21 | 48 | 6.4 | 11.3 | 0.00 | 0.00 | 0.00 | 43 | |
| 20260505112012 | 22 | 19 | 6.4 | 11.3 | 0.00 | 0.00 | 0.00 | 43 | |
| 20260505111511 | 22 | 66 | 3.2 | 6.4 | 0.00 | 0.00 | 0.00 | 44 | |
| 20260505111011 | 22 | 39 | 11.3 | 14.5 | 0.00 | 0.00 | 0.00 | 43 | |
| 20260505110510 | 22 | 132 | 11.3 | 14.5 | 0.00 | 0.00 | 0.00 | 43 | |
| 20260505101511 | 20 | 27 | 6.4 | 11.3 | 0.00 | 0.00 | 0.00 | 47 | |
| 20260505101010 | 21 | 51 | 6.4 | 14.5 | 0.00 | 0.00 | 0.00 | 47 | |
| 20260505100510 | 21 | 350 | 3.2 | 11.3 | 0.00 | 0.00 | 0.00 | 48 | |
| 20260505100011 | 20 | 7 | 3.2 | 3.2 | 0.00 | 0.00 | 0.00 | 48 | |
| 20260505095510 | 20 | 12 | 0.0 | 3.2 | 0.00 | 0.00 | 0.00 | 48 | |
| 20260505095010 | 20 | 331 | 0.0 | 6.4 | 0.00 | 0.00 | 0.00 | 48 | |
| 20260505094510 | 20 | 1 | 3.2 | 11.3 | 0.00 | 0.00 | 0.00 | 48 | |
| 20260505094010 | 20 | 5 | 3.2 | 6.4 | 0.00 | 0.00 | 0.00 | 48 | |
| 20260505093511 | 20 | 326 | 3.2 | 3.2 | 0.00 | 0.00 | 0.00 | 49 | |
| 20260505093015 | 20 | 331 | 3.2 | 14.5 | 0.00 | 0.00 | 0.00 | 49 | |
| 20260505092510 | 18 | 329 | 6.4 | 6.4 | 0.00 | 0.00 | 0.00 | 49 |